User: anonymous   Login
Location: Unspecified
(0.0000°N, 0.0000°E)
Time: 19:50:53
(UTC+00:00)
Language:

DX 1 - Orbit

View from above orbital plane
View from above orbital plane
View from above satellite
View from above satellite

Ground track
Ground track

The orbit data is extracted from the following two-line orbital elements,

1 40071U 14037C   19141.45378891  .00000113  00000-0  22051-4 0  9997
2 40071  98.4213 293.9018 0007780 324.3951  35.6751 14.81263754263078
Epoch (UTC): 21 May 2019 10:53:27
Eccentricity: 0.0007780
inclination: 98.4213°
perigee height: 620 km
apogee height: 631 km
right ascension of ascending node: 293.9018°
argument of perigee: 324.3951°
revolutions per day: 14.81263754
mean anomaly at epoch: 35.6751°
orbit number at epoch: 26307

The dashed part of the orbit path shows where the satellite is in the earth's shadow,  

DLR